Location: Biskupice Nowe
(50.6923°N, 19.2988°E)
Time: 12:12:42
(UTC+00:00)

NOSS 2-3 (E) - Pass Details

Date: 11 December 2025
Orbit: 492 x 1706 km, 63.3° (Epoch: 24 April)

Event Time Altitude Azimuth Distance (km) Brightness Sun altitude
Rises 16:57:57 0° 221° (SW) 2,589 7.6 -21.0°
Reaches altitude 10° 17:00:03 10° 220° (SW) 1,686 6.5 -21.3°
Enters shadow 17:03:38 84° 161° (SSE) 511 3.0 -21.9°
